Regional Weather Roundup
Issued by NWS

Home | Current Version | Previous Version | Text Only | Print | Product List | Glossary On
Versions: 1 2 3 4 5 6 7 8 9 10 11 12 13 14 15 16 17 18 19 20 21 22 23 24 25 26 27
000
ASUS44 KBMX 291210
RWRAL

ALABAMA REGIONAL WEATHER ROUNDUP
NATIONAL WEATHER SERVICE BIRMINGHAM AL
700 AM CDT MON MAY 29 2017

NOTE: "FAIR" INDICATES FEW OR NO CLOUDS BELOW 12,000 FEET
WITH NO SIGNIFICANT WEATHER AND/OR OBSTRUCTIONS TO VISIBILITY.

THE REMARK "TC" DENOTES TEMPERATURE IN DEGREES CELSIUS.

ALZ001>011-014-016>018-020-291300-
NORTH ALABAMA

CITY           SKY/WX    TMP DP  RH WIND       PRES   REMARKS
MUSCLE SHOALS  PTSUNNY   70  66  87 CALM      29.94F
6HR MIN TEMP:  68; 6HR MAX TEMP:  70; 6HR PCP:  0.23;

HUNTSVILLE     CLOUDY    70  69  97 SE5       29.97R
6HR MIN TEMP:  69; 6HR MAX TEMP:  70;

DECATUR        CLOUDY    69  68  96 SE7       29.97R
6HR MIN TEMP:  68; 6HR MAX TEMP:  72; 6HR PCP: TRACE;

HALEYVILLE     FAIR      67  65  93 CALM      29.99R
6HR MIN TEMP:  66; 6HR MAX TEMP:  68; 6HR PCP: TRACE;

GADSDEN        CLOUDY    70  68  93 E8        29.96F
6HR MIN TEMP:  68; 6HR MAX TEMP:  72;

$$

ALZ012-013-022-023-030>036-040>044-291300-
WEST CENTRAL ALABAMA

CITY           SKY/WX    TMP DP  RH WIND       PRES   REMARKS
TUSCALOOSA     CLOUDY    70  67  90 W3        29.98R
6HR MIN TEMP:  68; 6HR MAX TEMP:  72;

$$

ALZ015-024>027-033>036-040>044-291300-
CENTRAL ALABAMA

CITY           SKY/WX    TMP DP  RH WIND       PRES   REMARKS
BIRMINGHAM     PTSUNNY   71  66  84 E7        29.98S
6HR MIN TEMP:  70; 6HR MAX TEMP:  74;

MONTGOMERY     CLOUDY    72  66  81 S6        30.01R
6HR MIN TEMP:  70; 6HR MAX TEMP:  74;

SHELBY CO ARPT CLOUDY    70  68  93 VRB5      29.97R
6HR MIN TEMP:  69; 6HR MAX TEMP:  71;

MAXWELL AFB    PTSUNNY   72  70  93 SW3       30.00R
6HR MIN TEMP:  69; 6HR MAX TEMP:  72;

GREENVILLE     CLOUDY    72  68  87 CALM      30.02R
6HR MIN TEMP:  69; 6HR MAX TEMP:  72;

$$

ALZ019-021-028-029-037-038-045>048-291300-
EAST CENTRAL ALABAMA

CITY           SKY/WX    TMP DP  RH WIND       PRES   REMARKS
ANNISTON       MOSUNNY   69  66  90 E3        29.99S
6HR MIN TEMP:  67; 6HR MAX TEMP:  69;

ALEXANDER CITY PTSUNNY   67  65  96 CALM      30.01R
6HR MIN TEMP:  65; 6HR MAX TEMP:  70;

AUBURN         CLOUDY    70  67  90 S3        30.03R
6HR MIN TEMP:  68; 6HR MAX TEMP:  73;

$$

ALZ051>064-291300-
SOUTHWEST ALABAMA

CITY           SKY/WX    TMP DP  RH WIND       PRES   REMARKS
MOBILE         CLOUDY    74  71  91 SE8       30.00R
6HR MIN TEMP:  74; 6HR MAX TEMP:  77; 6HR PCP:  0.03;

BROOKLEY FIELD CLOUDY    76  73  91 SE13      30.01R
6HR MIN TEMP:  74; 6HR MAX TEMP:  79; 6HR PCP:  0.38;

EVERGREEN      LGT RAIN  72  70  93 SE3       30.01R
6HR MIN TEMP:  70; 6HR MAX TEMP:  72; 6HR PCP:  0.01;

$$

ALZ049-050-065>069-291300-
SOUTHEAST ALABAMA

CITY           SKY/WX    TMP DP  RH WIND       PRES   REMARKS
DOTHAN         CLOUDY    74  73  97 S6        30.05R
6HR MIN TEMP:  72; 6HR MAX TEMP:  75;

OZARK          CLOUDY    72  71  96 SW6       30.02R
6HR MIN TEMP:  71; 6HR MAX TEMP:  74;

TROY           MOSUNNY   71  70  96 CALM      30.02R
6HR MIN TEMP:  68; 6HR MAX TEMP:  72;

EUFAULA        FAIR      75  70  84 CALM      30.00R
6HR MIN TEMP:  69; 6HR MAX TEMP:  75;

$$




USA.gov is the U.S. government's official web portal to all federal, state and local government web resources and services.